Snowfall_Accumulation
0.0 0.0 0.0 0.0 0.0 0.0 0.0 0.0 0.1 0.2 0.0 0.0 0.0 0.0 0.0 0.0 0.0 0.0 0.0 0.0 0.0 0.0 0.0 0.0 0.0 0.0 0.0 0.0 0.0 0.0 0.0 0.0 0.0 0.0 0.0 0.0 0.0 0.0
0.0 0.0 0.0 0.0 0.0 0.0 0.0 0.0 0.0 0.2 0.2 0.0 0.0 0.0 0.0 0.0 0.0 0.0 0.0 0.0 0.0 0.0 0.0 0.0 0.0 0.0 0.0 0.0 0.0 0.0 0.0 0.0 0.0 0.0 0.0 0.0 0.0 0.0
0.0 0.0 0.0 0.0 0.0 0.0 0.0 0.0 0.0 0.1 0.3 0.1 0.0 0.1 0.0 0.0 0.0 0.0 0.0 0.0 0.0 0.1 0.1 0.1 0.1 0.1 0.1 0.1 0.0 0.0 0.0 0.0 0.0 0.0 0.0 0.0 0.0 0.0
0.0 0.0 0.0 0.0 0.0 0.0 0.0 0.0 0.1 0.1 0.5 0.9 0.6 0.5 0.4 0.2 0.2 0.2 0.1 0.1 0.1 0.1 0.1 0.2 0.2 0.2 0.2 0.2 0.2 0.1 0.1 0.1 0.0 0.0 0.0 0.0 0.0 0.0
0.0 0.0 0.1 0.1 0.1 0.1 0.1 0.1 0.3 0.4 0.9 1.4 0.7 0.3 0.3 0.2 0.2 0.1 0.1 0.1 0.0 0.0 0.1 0.1 0.2 0.3 0.4 0.4 0.3 0.2 0.2 0.1 0.1 0.1 0.1 0.0 0.0 0.0
0.1 0.1 0.1 0.1 0.3 0.5 0.7 0.7 1.4 1.2 1.1 1.5 1.5 1.1 0.8 0.5 0.5 0.6 0.5 0.3 0.2 0.1 0.0 0.1 0.1 0.3 0.3 0.2 0.3 0.3 0.3 0.4 0.4 0.4 0.3 0.2 0.2 0.1
0.2 0.3 0.4 0.4 0.3 0.5 0.9 1.3 1.3 1.7 2.2 2.8 2.6 1.7 1.0 0.7 0.6 0.7 0.8 0.5 0.3 0.2 0.2 0.1 0.2 0.2 0.1 0.1 0.1 0.0 0.2 0.4 0.5 0.5 0.6 0.5 0.3 0.3
0.7 0.7 0.9 0.8 0.5 0.5 0.6 0.9 1.7 2.9 3.5 4.0 3.5 2.6 1.4 0.9 0.8 1.1 1.6 2.1 1.6 0.3 0.4 0.3 0.1 0.1 0.1 0.1 0.1 0.2 0.5 0.7 0.8 0.9 0.8 0.8 0.5 0.4
1.1 1.1 1.0 0.9 0.8 0.6 0.6 1.1 1.6 2.1 2.7 3.0 2.9 1.8 1.4 1.1 2.0 3.0 3.0 3.2 2.3 0.6 0.6 0.7 0.2 0.2 0.1 0.1 0.2 0.3 0.4 0.6 0.7 0.8 0.9 0.8 0.7 0.5
0.8 0.7 0.7 0.5 0.5 0.9 1.5 2.0 1.5 1.2 1.1 1.0 1.1 1.1 1.2 1.3 2.5 4.0 3.7 2.7 1.1 0.5 0.4 1.4 0.6 0.4 0.2 0.1 0.1 0.1 0.2 0.4 0.7 0.8 0.9 0.9 0.8 0.7
0.8 0.7 0.6 0.6 0.8 1.9 2.8 2.8 1.6 0.6 0.4 0.6 1.0 1.0 1.0 0.9 1.1 2.6 3.8 5.0 3.7 0.9 0.6 1.3 0.8 0.6 0.3 0.1 0.0 0.2 0.4 0.5 0.6 0.8 0.9 0.9 1.0 0.8
0.8 0.6 0.7 0.8 1.6 2.8 3.1 2.9 1.9 0.8 1.1 0.9 0.5 0.3 0.3 0.2 0.5 2.1 6.0 10.2 8.0 4.1 0.6 1.7 2.0 2.8 3.9 0.7 0.7 0.6 0.5 0.5 0.9 0.8 0.8 0.9 0.9 1.2
1.2 0.6 0.4 1.2 2.2 2.7 2.3 1.4 1.5 2.2 1.9 0.9 0.5 0.3 0.4 0.4 0.5 0.8 2.9 9.2 12.3 8.0 1.9 5.2 7.0 4.6 7.1 4.0 1.2 0.6 0.7 1.3 1.6 1.3 0.8 0.9 1.1 1.8
1.6 0.9 0.8 1.8 2.0 1.4 0.9 1.0 1.8 1.9 1.3 1.3 1.3 1.2 1.3 1.1 1.1 1.2 1.5 2.8 5.7 7.2 4.4 7.9 12.6 9.3 11.6 8.8 3.9 1.7 1.4 2.1 3.6 3.5 2.3 1.6 1.3 1.2
1.5 1.6 1.8 1.5 1.0 0.7 0.6 1.1 1.3 1.8 2.5 3.4 3.4 2.7 1.9 2.0 1.8 2.5 2.5 2.9 3.9 5.2 5.8 6.9 10.4 11.3 12.7 12.2 8.1 5.7 5.9 3.6 3.5 5.6 5.3 3.6 2.5 1.6
1.7 1.7 1.4 0.9 0.8 0.9 1.1 1.4 1.6 2.1 3.7 4.9 4.4 3.5 3.1 3.6 4.0 5.3 6.6 6.9 7.6 6.7 6.0 5.6 6.8 9.9 11.1 8.4 9.0 8.4 8.3 10.4 7.7 7.3 5.9 4.6 3.0 2.3
2.7 1.6 1.2 1.5 1.4 1.7 1.8 1.6 2.0 2.4 3.3 4.0 4.6 4.8 4.6 5.3 6.3 7.4 9.1 10.1 10.6 9.0 7.5 5.6 4.7 5.3 6.8 7.9 8.5 7.3 8.0 10.2 7.8 6.8 5.5 5.9 4.0 2.1
2.3 2.5 2.4 2.5 2.6 2.4 2.5 2.6 2.9 3.2 4.0 5.4 5.9 6.5 7.4 8.0 8.8 9.1 10.6 11.9 11.4 9.2 7.5 5.8 5.0 5.0 4.4 4.3 5.6 8.1 9.3 10.4 8.5 4.7 5.0 7.5 6.0 3.0
2.0 3.0 3.1 3.2 3.2 3.1 3.5 3.9 4.2 4.2 5.6 7.4 8.2 8.8 9.7 10.0 10.7 11.4 11.6 11.4 10.2 8.2 6.9 5.9 6.9 10.7 12.0 8.3 4.8 6.6 11.4 11.9 8.2 6.5 5.6 6.2 7.0 3.8
2.1 2.7 3.2 3.4 3.5 3.9 4.2 5.1 5.7 6.0 6.9 8.2 9.1 9.7 11.2 12.4 12.8 12.3 11.7 11.2 10.3 8.3 6.2 4.8 6.0 10.5 16.3 14.6 11.2 8.6 6.7 10.7 12.2 10.7 6.3 3.6 3.1 2.2
2.4 2.3 2.4 3.0 3.9 4.3 4.9 5.7 6.8 8.0 9.2 10.8 11.3 11.7 12.4 14.2 14.5 12.2 11.0 9.7 9.0 8.2 7.0 4.9 4.4 6.4 10.3 13.0 12.3 9.9 9.6 6.1 7.2 11.6 11.4 10.4 8.7 6.6
2.9 3.1 2.9 3.0 3.7 4.4 5.2 6.2 7.7 8.6 9.8 10.9 11.5 11.8 12.2 13.6 13.4 11.1 9.3 8.7 8.0 7.5 6.7 5.1 4.3 5.5 8.5 12.0 11.3 8.8 8.7 7.5 4.7 3.4 4.8 8.7 15.8 17.2
3.8 3.8 3.8 3.8 4.5 4.9 5.9 6.8 8.2 9.2 10.0 11.7 12.1 11.7 11.3 11.0 9.3 8.6 8.2 8.2 8.4 7.6 7.0 6.5 5.5 5.6 6.7 8.3 9.3 8.7 7.6 6.9 6.6 6.7 7.7 3.5 3.7 4.2